Location: Prostredn� M�l?a
(48.7157°N, 19.2283°E)
Time: 09:22:16
(UTC+00:00)

Daily predictions for brighter satellites

Satellite Brightness Start Highest point End
(mag) Time Altitude Azimuth Time Altitude Azimuth Time Altitude Azimuth
Cosmos 2237 Rocket 2.2 17:33:23 10° SSW 17:38:58 68° ESE 17:44:34 10° NNE
STARLINK-1117 3.6 17:36:23 10° WNW 17:40:25 83° NNE 17:44:26 10° ESE
Cosmos 2098 Rocket 4.4 17:38:23 10° NNW 17:41:34 38° W 17:45:21 10° SSW
STARLINK-1121 4.3 17:37:39 10° WNW 17:41:41 48° N 17:45:42 10° E
HJ-1C 3.3 17:38:21 10° SSE 17:41:41 81° ENE 17:45:04 10° N
STARLINK-1192 4.3 17:39:32 10° SSW 17:43:10 33° SE 17:46:50 10° ENE
Cosmos 2278 Rocket 3.0 17:38:33 10° NW 17:44:07 57° WSW 17:49:38 10° S
STARLINK-1078 3.6 17:40:52 10° WNW 17:44:54 87° NNE 17:48:56 10° ESE
CZ-2C R/B 4.1 17:43:03 10° NE 17:45:56 15° E 17:48:49 10° ESE
Cosmos 1805 3.2 17:42:09 10° S 17:46:02 67° E 17:49:57 10° NNE
STARLINK-1106 4.2 17:42:37 10° WNW 17:46:40 49° N 17:50:42 10° E
Cosmos 1553 Rocket 4.0 17:41:33 10° S 17:47:37 88° E 17:53:45 10° N
STARLINK-1244 4.2 17:44:13 10° SSW 17:47:55 35° SE 17:51:39 10° ENE
Cosmos 1269 Rocket 4.5 17:43:11 10° S 17:48:01 38° ESE 17:52:54 10° NE
STARLINK-1108 3.6 17:45:23 10° WNW 17:49:26 89° SSW 17:53:27 10° ESE
Meteor 1-24 Rocket 3.6 17:45:22 10° N 17:50:57 70° ENE 17:56:19 10° SSE
STARLINK-1201 3.3 17:48:00 10° SW 17:51:10 49° SSE 17:54:21 10° ENE
STARLINK-1112 4.2 17:47:37 10° WNW 17:51:41 50° N 17:55:43 10° E
STARLINK-1138 4.1 17:48:50 10° SSW 17:52:36 38° SE 17:56:22 10° ENE
ARGOS 3.3 17:48:40 10° SE 17:53:56 55° ENE 17:59:12 10° N
STARLINK-1071 3.6 17:49:54 10° WNW 17:53:56 85° SSW 17:57:51 11° ESE
SeaSat 1 3.6 17:49:29 10° NNE 17:54:13 48° NW 17:58:56 10° SW
STARLINK-1124 3.7 17:50:23 10° WNW 17:54:33 84° SSW 17:58:34 11° ESE
SL-8 R/B 3.7 17:50:26 10° W 17:55:13 85° S 18:00:01 10° E
STARLINK-1128 4.2 17:52:38 10° WNW 17:56:42 51° NNE 18:00:36 11° E
MOS 1 4.3 17:51:29 10° SSE 17:57:02 64° ENE 18:02:39 10° N
STARLINK-1066 3.4 17:53:59 10° WNW 17:57:05 54° SSW 18:00:08 10° SE
STARLINK-1143 4.0 17:53:32 10° SSW 17:57:20 41° SE 18:01:10 10° ENE
STARLINK-1081 3.4 17:54:28 10° WNW 17:57:31 53° SSW 18:00:31 10° SE
STARLINK-1209 2.6 17:55:00 10° WSW 17:57:53 72° SSE 18:00:46 10° ENE
STARLINK-1070 3.4 17:54:55 10° WNW 17:57:58 52° SSW 18:00:56 10° SE
STARLINK-1069 3.5 17:55:19 10° WNW 17:58:24 52° SSW 18:01:24 11° SE
STARLINK-1110 3.6 17:54:24 10° WNW 17:58:27 80° SSW 18:02:11 12° ESE
STARLINK-1228 2.6 17:55:50 10° WSW 17:58:42 73° SSE 18:01:35 10° ENE
STARLINK-1085 3.5 17:55:46 10° WNW 17:58:51 52° SSW 18:01:50 11° SE
CZ-4 R/B 4.0 17:55:52 10° SSW 17:58:59 23° W 18:02:08 10° NW
STARLINK-1086 3.5 17:56:16 10° WNW 17:59:19 51° SSW 18:02:15 11° SE
STARLINK-1095 3.5 17:56:43 10° WNW 17:59:46 51° SSW 18:02:40 11° SE
STARLINK-1077 3.5 17:57:09 10° WNW 18:00:12 50° SSW 18:03:06 11° SE
STARLINK-1075 3.5 17:57:37 10° WNW 18:00:40 50° SSW 18:03:32 11° SE
Cosmos 2315 Rocket 4.3 17:55:08 10° SSE 18:01:03 44° E 18:07:02 10° NNE
STARLINK-1093 3.5 17:58:01 10° WNW 18:01:07 50° SSW 18:04:01 11° SE
STARLINK-1074 3.5 17:58:28 10° WNW 18:01:33 49° SSW 18:04:26 11° SE
STARLINK-1113 4.1 17:57:37 10° WNW 18:01:41 53° NNE 18:05:23 12° E
STARLINK-1087 3.5 17:58:59 10° WNW 18:02:01 49° SSW 18:04:50 11° SE
STARLINK-1088 3.6 17:59:26 10° WNW 18:02:28 48° SSW 18:05:16 11° SE
STARLINK-1115 3.6 17:59:51 10° WNW 18:02:55 48° SSW 18:05:45 11° SE
STARLINK-1076 3.6 18:00:17 10° WNW 18:03:21 48° SSW 18:06:10 12° SE
STARLINK-1092 3.6 18:00:45 10° WNW 18:03:49 47° SSW 18:06:37 12° SE
STARLINK-1080 3.6 18:01:14 10° WNW 18:04:16 47° SSW 18:07:00 12° SE
STARLINK-1090 3.6 18:01:40 10° WNW 18:04:41 46° SSW 18:07:26 12° SE
STARLINK-1089 3.6 18:02:08 10° WNW 18:05:09 46° SSW 18:07:52 12° SE
STARLINK-1107 3.7 18:02:36 10° WNW 18:05:36 45° SSW 18:08:18 12° SE
Cosmos 1470 3.5 18:02:53 10° SSE 18:06:18 31° E 18:09:45 10° NNE
STARLINK-1119 4.1 18:02:35 10° WNW 18:06:41 54° NNE 18:10:09 14° E
NOSS 2-1 (C) 4.1 18:04:00 10° WSW 18:07:18 46° NW 18:11:00 10° NNE
STARLINK-1122 3.7 18:03:33 10° WNW 18:07:35 72° SSW 18:10:59 14° SE
STARLINK-1241 3.8 18:04:00 10° SW 18:07:52 48° SE 18:11:45 10° ENE
SL-08 RB Rocket 3.9 18:04:01 10° SE 18:08:23 51° ENE 18:12:49 10° N
ATLAS CENTAUR R/B 4.1 18:06:54 10° WNW 18:09:21 14° NNW 18:11:44 10° N
IRS-1A Rocket 4.4 18:05:14 10° SSE 18:10:53 85° WSW 18:16:42 10° NNW
Resurs 1-3 4.3 18:07:20 11° SE 18:11:04 35° ENE 18:15:04 10° N
STARLINK-1233 2.8 18:08:12 10° SW 18:11:19 72° SSE 18:14:11 12° ENE
NOSS 2-1 (D) 4.3 18:08:15 10° WSW 18:11:31 42° NW 18:15:11 10° NNE
STARLINK-1114 4.0 18:07:36 10° WNW 18:11:42 56° NNE 18:14:57 15° E
STARLINK-1212 2.8 18:08:39 10° SW 18:11:46 72° SSE 18:14:35 12° ENE
COSMOS 2428 4.5 18:06:39 10° WSW 18:11:53 35° NW 18:17:07 10° NNE
SJ-6B 2.9 18:07:53 10° SSE 18:11:55 64° ENE 18:16:01 10° N
Cosmos 2369 Rocket 3.1 18:06:55 10° NNW 18:12:03 32° NE 18:16:02 15° ESE
STARLINK-1126 3.7 18:08:10 10° WNW 18:12:11 68° SSW 18:15:25 15° SE
STARLINK-1105 2.8 18:09:06 10° SW 18:12:13 73° SSE 18:15:03 12° ENE
STARLINK-1239 3.7 18:08:32 10° SW 18:12:25 51° SSE 18:16:12 11° ENE
ISS -3.2 18:09:22 10° WNW 18:12:40 52° N 18:15:13 16° E
STARLINK-1206 2.8 18:09:35 10° WSW 18:12:41 73° SSE 18:15:27 13° ENE
Cosmos 304 Rocket 4.1 18:07:58 10° NNW 18:12:45 70° WSW 18:17:30 10° SSE
CZ-2C R/B 2.9 18:07:56 10° SSE 18:13:00 81° ENE 18:17:52 10° NNW
STARLINK-1247 2.8 18:10:01 10° WSW 18:13:08 74° SSE 18:15:53 13° ENE
STARLINK-1227 2.8 18:10:26 10° WSW 18:13:33 74° SSE 18:16:20 13° ENE
Cosmos 1758 3.9 18:10:03 10° SSE 18:13:47 35° E 18:17:33 10° NNE
STARLINK-1218 2.8 18:10:55 10° WSW 18:14:01 75° SSE 18:16:45 13° ENE
STARLINK-1226 2.8 18:11:23 10° WSW 18:14:30 75° SSE 18:17:12 13° ENE
STARLINK-1254 2.8 18:11:47 10° WSW 18:14:54 76° SSE 18:17:38 13° ENE
STARLINK-1215 2.8 18:12:17 10° WSW 18:15:23 77° SSE 18:18:03 13° ENE
STARLINK-1231 2.8 18:12:43 10° WSW 18:15:49 77° SSE 18:18:29 14° ENE
STARLINK-1130 (DARKSAT) 4.0 18:12:34 10° WNW 18:16:40 58° NNE 18:19:43 17° E
STARLINK-1232 2.8 18:13:37 10° WSW 18:16:44 78° SSE 18:19:21 14° ENE
STARLINK-1082 3.8 18:12:44 10° WNW 18:16:45 64° SSW 18:19:48 16° SE
STARLINK-1240 3.7 18:13:05 10° SW 18:17:01 55° SSE 18:20:38 12° ENE
Meteor 2-8 Rocket 4.4 18:10:59 10° S 18:17:09 84° E 18:23:18 10° N
STARLINK-1217 2.7 18:14:05 10° WSW 18:17:11 79° SSE 18:19:47 14° ENE
STARLINK-1208 2.8 18:14:30 10° WSW 18:17:38 79° SSE 18:20:15 14° ENE
Meteor 1-22 Rocket 4.0 18:12:40 10° S 18:17:58 87° E 18:23:18 10° NNE
STARLINK-1229 2.7 18:14:58 10° WSW 18:18:05 80° SSE 18:20:39 14° ENE
Resurs 01 Rocket 2.6 18:15:31 16° ESE 18:18:19 30° ENE 18:22:09 10° N
STARLINK-1271 2.7 18:15:26 10° WSW 18:18:33 80° SSE 18:21:06 15° ENE
STARLINK-1270 2.7 18:15:53 10° WSW 18:19:00 81° SSE 18:21:32 15° ENE
STARLINK-1154 2.7 18:16:19 10° WSW 18:19:26 81° SSE 18:21:57 15° ENE
STARLINK-1197 2.7 18:17:13 10° WSW 18:20:20 83° SSE 18:22:49 15° ENE
STARLINK-1189 2.7 18:17:41 10° WSW 18:20:47 83° SSE 18:23:16 15° ENE
STARLINK-1100 3.9 18:17:18 10° WNW 18:21:17 60° SSW 18:24:11 18° SE
STARLINK-1216 3.6 18:17:40 10° SW 18:21:37 58° SSE 18:25:04 13° ENE
STARLINK-1187 2.8 18:18:30 10° WSW 18:21:39 89° NNW 18:24:10 15° ENE
STARLINK-1084 3.9 18:17:32 10° WNW 18:21:39 60° NNE 18:24:30 19° E
STARLINK-1188 2.8 18:18:34 10° WSW 18:21:41 84° SSE 18:24:07 16° ENE
STARLINK-1198 2.8 18:18:49 10° WSW 18:21:56 85° SSE 18:24:21 16° ENE
STARLINK-1235 2.9 18:19:12 10° WSW 18:22:21 81° NNW 18:24:55 15° ENE
Cosmos 494 Rocket 4.0 18:17:21 10° SSW 18:22:30 84° WNW 18:27:45 10° NNE
Cosmos 1733 3.5 18:19:25 10° SSW 18:23:10 70° W 18:26:57 10° N
Abrixas rocket 4.3 18:22:10 10° S 18:22:34 11° SSE 18:22:34 11° SSE
STARLINK-1199 2.8 18:20:30 10° WSW 18:23:38 87° SSE 18:26:02 16° ENE
STARLINK-1191 2.8 18:20:58 10° WSW 18:24:07 87° SE 18:26:29 16° ENE
STARLINK-1210 2.8 18:21:24 10° WSW 18:24:32 88° SSE 18:26:54 17° ENE
CZ-4C R/B 4.3 18:19:49 10° WNW 18:24:33 26° NNW 18:30:04 10° NE
STARLINK-1221 2.8 18:21:52 10° WSW 18:25:01 88° SSE 18:27:22 17° ENE
FREGAT/IRIS 3.1 18:22:21 10° S 18:25:01 54° W 18:27:43 10° NNW
Cosmos 1709 Rocket 4.0 18:19:08 10° N 18:25:24 86° E 18:31:34 10° S
STARLINK-1219 2.8 18:22:19 10° WSW 18:25:27 89° SSE 18:27:47 17° ENE
SPOT 3 Rocket 3.6 18:20:35 10° SSE 18:25:44 64° ENE 18:30:55 10° N
STARLINK-67 3.0 18:23:20 10° W 18:25:52 53° NNW 18:27:36 18° NE
STARLINK-1083 4.0 18:21:55 10° WNW 18:25:53 56° SSW 18:28:36 19° SE
STARLINK-1222 2.8 18:22:45 10° WSW 18:25:53 89° S 18:28:13 17° ENE
STARLINK-1237 3.5 18:22:17 10° SW 18:26:16 62° SSE 18:29:32 15° ENE
STARLINK-1211 2.8 18:23:13 10° WSW 18:26:21 90° ESE 18:28:38 17° ENE
STARLINK-1098 3.8 18:22:31 10° WNW 18:26:38 62° NNE 18:29:16 21° E
STARLINK-1214 2.8 18:23:40 10° WSW 18:26:48 90° NW 18:29:05 17° ENE
STARLINK-1245 2.8 18:24:10 10° WSW 18:27:17 89° NNW 18:29:30 18° ENE
STARLINK-1238 2.8 18:24:35 10° WSW 18:27:43 89° NNW 18:29:57 18° ENE
STARLINK-1205 2.8 18:25:32 10° WSW 18:28:39 87° NNW 18:30:48 18° ENE
STARLINK-1204 2.8 18:25:57 10° WSW 18:29:04 87° NNW 18:31:13 19° ENE
Meteor 2-15 4.4 18:23:17 10° S 18:29:14 62° E 18:35:12 10° NNE
SL-14 R/B 3.5 18:25:48 10° NNW 18:29:51 74° W 18:33:52 10° S
Cosmos 2219 Rocket 4.5 18:25:33 10° W 18:30:15 26° NW 18:34:58 10° NNE
STARLINK-1125 4.1 18:26:32 10° WNW 18:30:29 53° SW 18:33:02 20° SE
STARLINK-1202 3.5 18:26:53 10° SW 18:30:51 67° SSE 18:33:58 16° ENE
STARLINK-1123 3.8 18:27:31 10° WNW 18:31:39 65° NNE 18:34:05 23° E
Cosmos 1726 3.6 18:32:04 20° E 18:32:04 20° E 18:34:30 10° NE
MOS 1 Rocket 4.0 18:28:42 10° NNE 18:33:32 38° E 18:38:32 10° SSE
STARLINK-1109 4.1 18:30:50 10° WNW 18:34:45 50° SW 18:37:10 21° SSE
STARLINK-1246 3.5 18:31:49 10° SW 18:35:51 72° SSE 18:38:50 18° ENE
STARLINK-1097 3.7 18:32:29 10° WNW 18:36:37 68° NNE 18:38:50 26° E
Cosmos 2074 Rocket 4.3 18:31:42 10° N 18:37:44 46° ENE 18:42:01 19° SE
Cosmos 1943 Rocket 2.3 18:32:25 10° NNW 18:37:53 56° ENE 18:41:19 23° SE
Cosmos 292 Rocket 4.2 18:33:33 10° NNW 18:38:10 45° ENE 18:40:35 25° ESE
STARLINK-1091 4.3 18:35:31 10° WNW 18:39:24 46° SW 18:41:39 22° SSE
STARLINK-1099 3.7 18:37:28 10° WNW 18:41:37 71° NNE 18:43:38 29° E
Ariane Rocket 4.2 18:36:57 10° S 18:41:47 43° W 18:46:37 10° NNW
STARLINK-1224 3.4 18:40:46 10° WSW 18:44:48 80° SSE 18:47:24 21° ENE
Cosmos 1455 Rocket 4.1 18:41:45 10° SSW 18:45:55 47° WNW 18:50:09 10° N
STARLINK-1104 3.6 18:42:28 10° WNW 18:46:37 74° NNE 18:48:25 32° E
IRIDIUM 106 4.3 18:42:59 10° N 18:48:13 66° E 18:52:26 16° SSE
TSX-5 4.4 18:43:10 10° NNW 18:48:43 76° WSW 18:51:27 23° SSE
STARLINK-1225 3.4 18:45:28 10° WSW 18:49:30 84° SSE 18:51:55 23° ENE
Meteor 2-10 4.5 18:47:40 19° SSE 18:51:05 41° E 18:56:14 10° NNE
STARLINK-1203 3.4 18:47:28 10° WSW 18:51:26 89° N 18:53:42 24° ENE
STARLINK-1144 3.6 18:47:25 10° WNW 18:51:35 78° NNE 18:53:11 36° ESE
SL-16 R/B 2.2 18:46:58 10° SSW 18:52:39 87° WNW 18:58:21 10° NNE
Cosmos 1626 Rocket 3.9 18:48:24 10° NNW 18:52:48 66° W 18:57:07 10° S
STARLINK-1230 3.4 18:50:05 10° WSW 18:54:08 88° SSE 18:56:22 25° ENE
USA 186 4.0 18:51:19 10° SSW 18:54:19 28° W 18:57:20 10° NW
Spot 2 Rocket 4.1 18:52:55 29° ESE 18:54:46 39° ENE 18:59:31 10° N
Cosmos 1626 3.6 18:52:12 10° NNW 18:55:38 36° W 18:59:03 10° SSW
Cosmos 1953 2.3 18:53:54 28° SSE 18:55:42 54° E 18:59:35 10° NNE
STARLINK-1103 3.6 18:52:24 10° WNW 18:56:34 82° NNE 18:57:58 41° ESE
Cosmos 1437 3.8 18:54:12 10° N 18:56:21 29° NE 18:56:21 29° NE
Cosmos 2084 Rocket 3.5 18:52:40 10° NW 18:57:09 70° NE 18:58:47 38° ESE
STARLINK-1234 3.5 18:54:32 10° W 18:57:28 50° NNW 18:58:25 33° NE
STARLINK-1243 3.5 18:54:47 10° WSW 18:58:50 87° NNW 19:00:53 28° ENE
Cosmos 1602 Rocket 3.8 18:55:54 10° NNW 19:00:22 71° W 19:03:54 16° S
Aureole 3 3.5 18:57:25 14° S 19:00:49 77° E 19:05:55 10° NNE
STARLINK-1101 3.5 18:57:24 10° WNW 19:01:34 86° NNE 19:02:46 45° ESE
STARLINK-1236 3.5 18:59:27 10° WSW 19:03:29 83° NNW 19:05:22 31° ENE
DMSP B5D2-2 3.9 19:00:03 10° NNE 19:05:18 78° ESE 19:10:31 10° S
IGS 5A 4.5 19:05:47 29° ENE 19:05:48 29° ENE 19:09:25 10° N
H-2A R/B 3.7 19:01:25 10° SSW 19:06:13 34° W 19:10:57 10° NNW
ATLAS 2AS CENTAUR R/B 3.6 18:58:57 10° NW 19:06:21 44° NNE 19:10:15 25° E
STARLINK-1102 3.5 19:02:22 10° WNW 19:06:32 90° NE 19:07:32 51° ESE
Aureole 2 Rocket 2.3 19:06:51 10° NNW 19:10:23 72° ENE 19:10:31 70° E
Terra 3.5 19:10:44 18° ENE 19:10:49 18° ENE 19:14:02 10° NNE
STARLINK-1111 3.5 19:07:20 10° WNW 19:11:30 86° SSW 19:12:19 57° ESE
STARLINK-1269 3.6 19:08:52 10° WSW 19:12:55 76° NNW 19:14:25 37° ENE
USA 234 3.2 19:06:31 10° NE 19:13:06 84° SE 19:19:40 10° SW
Cosmos 1603 3.9 19:12:01 29° SSE 19:14:24 44° ESE 19:19:42 10° NE
Meteor 1-16 Rocket 4.1 19:12:24 32° SSE 19:14:43 56° E 19:20:02 10° NNE
CZ-2C R/B 4.3 19:10:07 10° N 19:14:50 62° WNW 19:19:28 10° SSW
ERBS 4.5 19:12:11 10° WNW 19:15:01 24° NNW 19:16:57 15° NNE
STARLINK-1073 3.5 19:12:20 10° WNW 19:16:29 81° SSW 19:17:06 63° SE
Cosmos 1726 Rocket 4.3 19:18:06 35° ENE 19:18:06 35° ENE 19:21:22 10° NNE
STARLINK-1200 3.7 19:13:34 10° WSW 19:17:37 72° NNW 19:18:57 40° NE
Cosmos 1703 3.6 19:14:09 10° N 19:17:46 49° ENE 19:17:46 49° ENE
Cosmos 1825 Rocket 3.4 19:15:22 10° N 19:19:49 75° E 19:20:41 56° SSE
STARLINK-1121 3.5 19:17:19 10° WNW 19:21:28 77° SSW 19:21:53 68° SSE
MetOp-B 4.1 19:19:53 40° SSE 19:21:50 74° ENE 19:27:12 10° NNW
STARLINK-1192 3.7 19:18:14 10° WSW 19:22:16 69° NNW 19:23:25 44° NE
Cosmos 2237 Rocket 4.4 19:18:51 10° WSW 19:23:32 26° NW 19:28:17 10° NNE
COSMOS 2455 4.2 19:20:47 10° NNW 19:25:53 27° NE 19:28:01 22° ENE
STARLINK-1106 3.5 19:22:17 10° WNW 19:26:25 72° SSW 19:26:40 69° S
CZ-2C R/B 2.5 19:21:43 10° NNE 19:26:56 83° WNW 19:32:06 10° SSW
STARLINK-1244 3.8 19:23:02 10° WSW 19:27:05 67° NNW 19:28:01 48° NE
STARLINK-1201 3.8 19:24:18 10° W 19:27:28 46° NNW 19:27:31 46° N
Meteor 1-11 4.4 19:22:49 10° N 19:28:33 57° ENE 19:29:47 47° ESE
Cosmos 2184 Rocket 4.0 19:22:11 10° N 19:28:35 83° W 19:32:14 27° S
Cosmos 1992 Rocket 4.0 19:23:33 10° NNW 19:28:47 76° WSW 19:30:33 42° S
Cosmos 1758 Rocket 3.6 19:24:41 10° NNW 19:29:04 75° W 19:30:09 49° S
STARLINK-1112 3.6 19:27:17 10° WNW 19:31:25 68° SSW 19:31:27 67° SSW
STARLINK-1138 3.9 19:27:45 10° W 19:31:47 64° NNW 19:32:32 52° NNE
Meteor 2-17 Rocket 4.4 19:28:57 10° N 19:35:07 72° E 19:36:57 47° SSE
Cosmos 1953 Rocket 3.4 19:30:57 10° N 19:35:25 74° E 19:35:31 74° E
STARLINK-1128 3.8 19:32:17 10° WNW 19:36:15 62° SW 19:36:15 62° SW
STARLINK-1143 3.9 19:32:33 10° W 19:36:34 62° NNW 19:37:08 55° NNE
Cosmos 2251 Rocket 3.4 19:31:24 10° SSW 19:36:46 89° ESE 19:42:12 10° NNE
SL-8 R/B 3.5 19:32:59 10° W 19:37:46 76° SSW 19:38:02 73° SSE
Cosmos 1656 Rocket 3.7 19:34:40 10° NNW 19:40:21 64° ENE 19:41:14 56° ESE
STARLINK-1113 4.0 19:37:16 10° WNW 19:41:02 57° WSW 19:41:02 57° WSW
Cosmos 1606 Rocket 3.4 19:43:16 88° E 19:43:16 88° E 19:47:44 10° N
STARLINK-1119 4.2 19:42:15 10° WNW 19:45:48 51° WSW 19:45:48 51° WSW
STARLINK-1241 4.0 19:43:04 10° W 19:47:02 56° NNW 19:47:06 56° N
ERS-1 Rocket 3.1 19:48:48 57° ENE 19:48:48 57° ENE 19:53:40 10° N
Cosmos 2154 Rocket 4.0 19:43:05 10° N 19:49:29 88° W 19:51:32 47° S
ISS -2.0 19:46:15 10° WNW 19:48:11 31° W 19:48:11 31° W
USA 245 4.0 19:50:07 64° S 19:50:55 81° WSW 19:56:44 10° NNW
STARLINK-1114 4.4 19:47:16 10° WNW 19:50:36 45° WSW 19:50:36 45° WSW
STARLINK-1239 4.1 19:47:40 10° W 19:51:30 54° NNW 19:51:30 54° NNW
BREEZE-M DEB (TANK) 4.4 19:49:32 10° WNW 19:53:10 39° W 19:53:10 39° W
Resurs 01 Rocket 3.1 19:53:04 25° SW 19:54:44 33° W 19:58:45 10° NNW
SPOT 5 3.4 19:56:05 43° NNE 19:56:05 43° NNE 19:59:24 10° N
STARLINK-1240 4.3 19:52:18 10° W 19:55:56 51° NNW 19:55:56 51° NNW
Cosmos 2369 Rocket 2.7 19:50:50 10° NW 19:56:21 53° WSW 19:57:50 42° SSW
SL-24 R/B 4.4 19:52:35 10° N 19:57:42 79° E 19:57:55 77° SE
Cosmos 2263 4.3 19:54:34 10° NNW 20:00:09 66° WSW 20:00:59 58° SSW
STARLINK-1216 4.4 19:56:58 10° W 20:00:23 48° NW 20:00:23 48° NW
Cosmos 967 Rocket 4.4 19:55:24 10° SSW 20:01:50 78° SE 20:08:21 10° NE
Cosmos 962 Rocket 4.3 19:59:22 10° N 20:05:38 79° E 20:06:15 71° SE
Landsat 7 3.9 20:06:34 71° W 20:06:34 71° W 20:11:14 10° NNW
Cosmos 1726 3.7 20:06:29 32° W 20:06:42 32° WNW 20:10:08 10° N
Nadezhda 1 Rocket 4.2 20:06:17 32° SSW 20:09:25 72° W 20:15:50 10° N
Cosmos 2228 3.7 20:11:03 51° WNW 20:11:03 51° WNW 20:15:03 10° N
Cosmos 921 Rocket 4.4 20:06:50 10° N 20:09:20 31° NNE 20:09:20 31° NNE
SL-8 Rocket 4.0 20:05:40 10° N 20:11:55 61° ENE 20:11:56 61° ENE
CZ-4C R/B 4.5 20:10:19 10° NW 20:15:17 23° N 20:20:56 10° ENE
Cosmos 2366 rocket 4.2 20:13:00 10° N 20:18:37 54° ENE 20:18:37 54° ENE
Cosmos 1943 3.2 20:19:28 69° WSW 20:20:06 79° WNW 20:25:50 10° NNE
Cosmos 1943 Rocket 3.7 20:16:44 10° NW 20:21:16 26° WSW 20:22:51 23° SW
Cosmos 2058 Rocket 4.1 20:24:10 43° N 20:24:10 43° N 20:27:19 10° N
NOSS 3-4 (A) 3.7 20:18:07 10° NW 20:25:04 82° NE 20:25:57 71° ESE
NOSS 3-4 (C) 3.7 20:18:13 10° NW 20:25:10 82° NE 20:26:03 70° ESE
SPOT 1/Viking Rocket 4.1 20:32:06 51° W 20:32:06 51° W 20:37:08 10° NNW
Mayak 1.5 20:30:13 10° NNE 20:30:20 11° NNE 20:30:20 11° NNE
NOSS 3-3 (A) 4.1 20:29:01 10° SW 20:34:57 70° NW 20:41:44 10° NE
NOSS 3-3 (C) 4.1 20:29:07 10° SW 20:35:03 70° NW 20:41:50 10° NE
Terra 2.9 20:49:36 42° NNW 20:49:36 42° NNW 20:52:50 10° NNW
Cosmos 2341 Rocket 4.5 20:47:17 10° NNW 20:53:27 54° W 20:53:51 53° WSW
USA 234 3.9 20:49:37 10° ENE 20:55:54 51° NNW 21:02:11 10° W
ATLAS 2AS CENTAUR R/B 2.9 20:50:15 10° NW 20:57:42 67° WSW 20:57:42 67° WSW
Cosmos 1980 Rocket 4.2 21:05:02 10° N 21:08:50 18° NE 21:09:09 18° NE
COSMOS 2455 3.4 21:06:29 10° NW 21:11:09 56° NW 21:11:09 56° NW
ATLAS CENTAUR R/B 4.4 21:28:30 10° N 21:29:15 12° N 21:29:15 12° N
CZ-4C R/B 3.7 21:59:13 10° NW 22:05:38 42° NNE 22:06:33 40° NE
Mayak 1.7 22:06:05 10° N 22:06:55 14° NNW 22:06:55 14° NNW
Cosmos 2344 4.5 22:07:22 10° NW 22:16:27 65° NE 22:20:03 47° E
Cosmos 1697 Rocket 4.3 22:23:11 10° NNW 22:26:02 31° NNW 22:26:02 31° NNW
SL-16 R/B 4.2 22:25:16 10° N 22:29:37 22° NE 22:29:37 22° NE
USA 234 4.2 22:32:09 10° ENE 22:38:15 44° N 22:44:22 10° WNW
Cosmos 2322 Rocket 4.1 22:40:14 10° N 22:44:38 23° NE 22:44:38 23° NE
Cosmos 1980 Rocket 3.9 22:48:14 10° NNW 22:50:54 29° NNW 22:50:54 29° NNW
Cosmos 2082 Rocket 3.8 23:15:19 29° NE 23:15:19 29° NE 23:18:02 10° NNE
SL-16 R/B 3.6 23:21:37 38° NE 23:21:37 38° NE 23:26:55 10° N
ATLAS 5 CENTAUR R/B 4.1 23:39:11 20° N 23:39:11 20° N 23:42:21 10° NNE
Cosmos 1833 Rocket 4.1 23:45:10 34° N 23:45:10 34° N 23:48:42 10° NNE
